Park Rapids, MN

8:46 AM CST on February 12, 2016 (GMT -0600)
Park Rapids Municipal

Weather History for KPKD - October, 2012

Change the Weather History Date:

Tuesday, October 9, 2012

  Actual Average Record
Temperature  
Mean Temperature 34 °F -  
Max Temperature 41 °F 56 °F 80 °F (2010)
Min Temperature 27 °F 34 °F 18 °F (1964)
Degree Days  
Heating Degree Days 32    
Moisture  
Dew Point 30 °F    
Average Humidity 81    
Maximum Humidity 96    
Minimum Humidity 60    
Precipitation  
Precipitation 0.00 in - - ()
Sea Level Pressure  
Sea Level Pressure 29.80 in    
Wind  
Wind Speed 11 mph (WNW)    
Max Wind Speed 23 mph    
Max Gust Speed 29 mph    
Visibility 10 miles    
Events Rain    
Averages and records for this station are not official NWS values.
T = Trace of Precipitation, MM = Missing Value Source: NWS Daily Summary

Daily Weather History Graph

Daily Weather History Graph

Search for Another Location

Airport or City:

Trip Planner

Search our weather history database for the weather conditions in past years. The results will help you decide how hot, cold, wet, or windy it might be!

Date:

Astronomy

Oct. 09, 2012 Rise Set
Actual Time 7:30 AM CDT 6:43 PM CDT
Civil Twilight 7:00 AM CDT 7:13 PM CDT
Nautical Twilight 6:24 AM CDT 7:48 PM CDT
Astronomical Twilight 5:49 AM CDT 8:24 PM CDT
Moon 12:45 AM CDT (10/9) 3:31 PM CDT (10/9)
Length of Visible Light 12h 13m
Length of Day
11h 12m
Last Quarter, 36% of the Moon is Illuminated
Oct 9
Last Quarter
Oct 15
New
Oct 21
First Quarter
Oct 29
Full
Nov 6
Last Quarter

Hourly Weather History & Observations

Time (CDT) Temp. Windchill Dew Point Humidity Pressure Visibility Wind Dir Wind Speed Gust Speed Precip Events Conditions
12:53 AM 35.1 °F 31.0 °F 34.0 °F 96% 29.69 in 10.0 mi SW 4.6 mph - N/A   Mostly Cloudy
1:53 AM 36.0 °F 30.3 °F 34.0 °F 93% 29.70 in 10.0 mi WSW 6.9 mph - N/A   Partly Cloudy
2:53 AM 37.4 °F 31.4 °F 33.8 °F 87% 29.66 in 10.0 mi West 8.1 mph - N/A   Overcast
3:53 AM 37.9 °F 30.9 °F 32.0 °F 79% 29.68 in 10.0 mi West 10.4 mph - N/A   Overcast
4:53 AM 36.0 °F 29.0 °F 30.0 °F 79% 29.69 in 10.0 mi West 9.2 mph - N/A   Clear
5:53 AM 34.0 °F 25.5 °F 28.9 °F 82% 29.70 in 10.0 mi West 11.5 mph - N/A   Clear
6:53 AM 33.1 °F 24.4 °F 28.0 °F 82% 29.71 in 10.0 mi West 11.5 mph - N/A   Clear
7:53 AM 34.0 °F 28.0 °F 28.9 °F 82% 29.72 in 10.0 mi WSW 6.9 mph - N/A   Overcast
8:33 AM 35.6 °F 29.2 °F 28.4 °F 75% 29.67 in 10.0 mi West 8.1 mph - N/A   Overcast
8:53 AM 36.0 °F 28.5 °F 30.0 °F 79% 29.72 in 10.0 mi West 10.4 mph - N/A   Overcast
9:53 AM 36.0 °F 27.5 °F 32.0 °F 86% 29.74 in 10.0 mi West 12.7 mph - 0.00 in   Overcast
10:53 AM 37.0 °F 29.8 °F 32.0 °F 82% 29.75 in 10.0 mi West 10.4 mph - 0.00 in   Overcast
11:53 AM 37.0 °F 27.7 °F 33.1 °F 86% 29.78 in 8.0 mi WNW 16.1 mph - N/A   Overcast
12:13 PM 37.4 °F 28.5 °F 33.8 °F 87% 29.74 in 4.0 mi WNW 15.0 mph - N/A   Overcast
12:24 PM 37.4 °F 28.5 °F 33.8 °F 87% 29.74 in 10.0 mi NW 15.0 mph - N/A   Overcast
12:33 PM 37.4 °F 28.2 °F 33.8 °F 87% 29.75 in 6.0 mi NW 16.1 mph 24.2 mph 0.00 in Rain Light Rain
12:40 PM 37.4 °F 28.9 °F 33.8 °F 87% 29.75 in 8.0 mi NW 13.8 mph 24.2 mph 0.00 in Rain Light Rain
12:53 PM 39.0 °F 31.0 °F 35.1 °F 86% 29.80 in 10.0 mi NW 13.8 mph - 0.00 in   Overcast
1:18 PM 39.2 °F 29.3 °F 33.8 °F 81% 29.76 in 10.0 mi NW 20.7 mph 25.3 mph 0.00 in   Overcast
1:44 PM 37.4 °F 26.9 °F 30.2 °F 75% 29.78 in 10.0 mi NW 20.7 mph 28.8 mph 0.00 in Rain Light Rain
1:53 PM 37.9 °F 27.1 °F 30.9 °F 76% 29.83 in 10.0 mi NW 23.0 mph 28.8 mph 0.00 in Rain Light Rain
2:53 PM 37.0 °F 27.7 °F 28.0 °F 70% 29.86 in 10.0 mi NW 16.1 mph 25.3 mph 0.00 in   Overcast
3:17 PM 37.4 °F 26.6 °F 26.6 °F 65% 29.82 in 10.0 mi NW 21.9 mph 27.6 mph N/A   Overcast
3:53 PM 39.0 °F 30.3 °F 26.1 °F 60% 29.87 in 10.0 mi NW 16.1 mph 25.3 mph N/A   Overcast
4:53 PM 37.9 °F 30.0 °F 28.0 °F 68% 29.89 in 9.0 mi NW 12.7 mph - 0.00 in   Overcast
5:53 PM 37.0 °F 27.4 °F 28.0 °F 70% 29.92 in 10.0 mi WNW 17.3 mph 21.9 mph N/A   Overcast
6:53 PM 34.0 °F 25.5 °F 27.0 °F 75% 29.95 in 10.0 mi WNW 11.5 mph - 0.00 in   Mostly Cloudy
7:53 PM 33.1 °F 24.4 °F 27.0 °F 78% 29.97 in 10.0 mi WNW 11.5 mph - N/A   Partly Cloudy
8:53 PM 34.0 °F 26.0 °F 28.0 °F 79% 29.98 in 10.0 mi WNW 10.4 mph - N/A   Overcast
9:53 PM 32.0 °F 24.8 °F 27.0 °F 82% 30.00 in 10.0 mi WNW 8.1 mph - N/A   Scattered Clouds
10:53 PM 28.9 °F 21.9 °F 26.1 °F 89% 30.00 in 10.0 mi WNW 6.9 mph - N/A   Mostly Cloudy
11:53 PM 27.0 °F 18.7 °F 24.1 °F 89% 30.01 in 10.0 mi West 8.1 mph - N/A   Clear